Emerado, ND

3:32 AM CST on January 22, 2017 (GMT -0600)
Grand Forks International

Weather History for KGFK - September, 2013

Change the Weather History Date:

Wednesday, September 4, 2013

  Actual Average Record
Temperature  
Mean Temperature 60 °F 62 °F  
Max Temperature 73 °F 75 °F 95 °F (1978)
Min Temperature 46 °F 49 °F 33 °F (1981)
Degree Days  
Heating Degree Days 5 5  
Month to date heating degree days 18 18  
Since 1 July heating degree days 100 100  
Cooling Degree Days 0 2  
Month to date cooling degree days 5 8  
Year to date cooling degree days 453 360  
Growing Degree Days 9 (Base 50)    
Moisture  
Dew Point 46 °F    
Average Humidity 65    
Maximum Humidity 93    
Minimum Humidity 36    
Precipitation  
Precipitation 0.00 in 0.08 in 2.96 in (2016)
Month to date precipitation T 0.31  
Year to date precipitation 14.23 15.54  
Snow  
Snow 0.00 in 0.00 in 0.00 in ()
Month to date snowfall 0.0 0.0  
Since 1 July snowfall 0.0 0.0  
Since 1 September snowfall 0.0 0.0  
Snow Depth 0.00 in    
Sea Level Pressure  
Sea Level Pressure 30.14 in    
Wind  
Wind Speed 6 mph (North)    
Max Wind Speed 13 mph    
Max Gust Speed 16 mph    
Visibility 10 miles    
Events      
T = Trace of Precipitation, MM = Missing Value Source: NWS Daily Summary

Daily Weather History Graph

Daily Weather History Graph

Search for Another Location

Airport or City:

Trip Planner

Search our weather history database for the weather conditions in past years. The results will help you decide how hot, cold, wet, or windy it might be!

Date:

Astronomy

Sep. 04, 2013 Rise Set
Actual Time 6:51 AM CDT 8:03 PM CDT
Civil Twilight 6:19 AM CDT 8:34 PM CDT
Nautical Twilight 5:40 AM CDT 9:13 PM CDT
Astronomical Twilight 4:59 AM CDT 9:53 PM CDT
Moon 6:05 AM CDT (9/4) 7:20 PM CDT (9/4)
Length of Visible Light 14h 15m
Length of Day
13h 11m
Waning Crescent, 1% of the Moon is Illuminated
Sep 4
Waning Crescent
Sep 5
New
Sep 12
First Quarter
Sep 19
Full
Sep 26
Last Quarter

Hourly Weather History & Observations

Time (CDT) Temp. Dew Point Humidity Pressure Visibility Wind Dir Wind Speed Gust Speed Precip Events Conditions
12:53 AM 61.0 °F 45.0 °F 56% 30.05 in 10.0 mi North 10.4 mph - N/A   Clear
1:53 AM 59.0 °F 45.0 °F 60% 30.06 in 10.0 mi North 10.4 mph - N/A   Clear
2:53 AM 57.0 °F 45.0 °F 64% 30.08 in 10.0 mi North 8.1 mph - N/A   Clear
3:53 AM 54.0 °F 46.0 °F 75% 30.09 in 10.0 mi North 8.1 mph - N/A   Clear
4:53 AM 50.0 °F 46.0 °F 86% 30.09 in 10.0 mi North 3.5 mph - N/A   Clear
5:53 AM 48.0 °F 45.0 °F 89% 30.10 in 10.0 mi NNW 4.6 mph - N/A   Scattered Clouds
6:53 AM 46.9 °F 44.1 °F 90% 30.13 in 10.0 mi NW 4.6 mph - N/A   Scattered Clouds
7:53 AM 48.9 °F 46.0 °F 90% 30.15 in 10.0 mi North 6.9 mph - N/A   Scattered Clouds
8:53 AM 53.1 °F 46.9 °F 80% 30.16 in 10.0 mi North 6.9 mph - N/A   Mostly Cloudy
9:53 AM 59.0 °F 46.9 °F 64% 30.17 in 10.0 mi NNE 8.1 mph - N/A   Mostly Cloudy
10:53 AM 64.0 °F 48.0 °F 56% 30.17 in 10.0 mi NE 6.9 mph - N/A   Mostly Cloudy
11:53 AM 68.0 °F 48.0 °F 49% 30.18 in 10.0 mi NE 6.9 mph - N/A   Mostly Cloudy
12:53 PM 70.0 °F 41.0 °F 35% 30.18 in 10.0 mi NE 9.2 mph - N/A   Mostly Cloudy
1:53 PM 69.1 °F 41.0 °F 36% 30.16 in 10.0 mi NNE 9.2 mph - N/A   Overcast
2:53 PM 69.1 °F 43.0 °F 39% 30.16 in 10.0 mi NNE 3.5 mph - N/A   Overcast
3:53 PM 71.1 °F 48.0 °F 44% 30.17 in 10.0 mi NNW 8.1 mph - N/A   Mostly Cloudy
4:53 PM 72.0 °F 45.0 °F 38% 30.14 in 10.0 mi ENE 8.1 mph - N/A   Mostly Cloudy
5:53 PM 70.0 °F 46.9 °F 44% 30.14 in 10.0 mi NNE 6.9 mph - N/A   Mostly Cloudy
6:53 PM 66.0 °F 48.0 °F 52% 30.15 in 10.0 mi North 6.9 mph - N/A   Mostly Cloudy
7:53 PM 60.1 °F 50.0 °F 69% 30.14 in 10.0 mi North 5.8 mph - N/A   Mostly Cloudy
8:53 PM 57.0 °F 48.9 °F 74% 30.15 in 10.0 mi North 5.8 mph - N/A   Scattered Clouds
9:53 PM 54.0 °F 48.0 °F 80% 30.15 in 10.0 mi NNE 4.6 mph - N/A   Scattered Clouds
10:53 PM 52.0 °F 46.0 °F 80% 30.16 in 10.0 mi Calm Calm - N/A   Clear
11:53 PM 50.0 °F 46.0 °F 86% 30.16 in 10.0 mi Calm Calm - N/A   Clear